Location: Altmatt
(47.1333°N, 8.7000°E)
Time: 02:56:38
(UTC+00:00)

Meteor 1-10 Rocket - Pass Details

Date: 13 July 2020
Orbit: 835 x 911 km, 81.3° (Epoch: 04 August)

Event Time Altitude Azimuth Distance (km) Brightness Sun altitude
Rises 22:42:17 0° 351° (N) 3,404 9.0 -20.3°
Reaches altitude 10° 22:44:45 10° 355° (N) 2,461 7.8 -20.4°
Maximum altitude 22:50:15 61° 76° (ENE) 947 4.4 -20.6°
Enters shadow 22:52:20 37° 140° (SE) 1,282 4.7 -20.7°
